Regional Weather Roundup
Issued by NWS Cleveland, OH

Home | Current Version | Previous Version | Text Only | Print | Product List | Glossary Off
Versions: 1 2 3 4 5 6 7 8 9 10 11 12 13 14 15 16 17 18 19 20 21 22 23 24 25 26 27 28 29 30 31 32 33 34 35 36 37 38 39 40 41 42 43 44 45 46 47 48 49 50

501
ASUS41 KCLE 300810
RWRCLE
OHIO REGIONAL WEATHER ROUNDUP
NATIONAL WEATHER SERVICE CLEVELAND, OH
400 AM EDT THU MAR 30 2017

NOTE: "FAIR" INDICATES FEW OR NO CLOUDS BELOW 12,000 FEET WITH NO
SIGNIFICANT WEATHER AND/OR OBSTRUCTIONS TO VISIBILITY.

OHZ001>008-015>018-024>027-034-035-043-044-300900-
   NORTHWEST OHIO

CITY           SKY/WX    TMP DP  RH WIND       PRES   REMARKS
DEFIANCE       CLOUDY    42  34  73 E14G23    30.04F
FINDLAY        CLOUDY    44  35  70 NE15      30.05S
TOLEDO EXPRESS LGT RAIN  41  35  79 E14       30.09F
TOLEDO EXEC    CLOUDY    42  36  79 E14G22    30.10F
LIMA           LGT RAIN  44  36  73 NE13      30.01F
$$

OHZ009>014-019>023-028>033-038-089-300900-
   NORTHEAST OHIO

CITY           SKY/WX    TMP DP  RH WIND       PRES   REMARKS
CLE-HOPKINS    CLOUDY    49  29  46 E13       30.11F
CLE-LAKEFRONT  CLOUDY    43  37  79 NE12      30.09F
CUY CO. ARPT   NOT AVBL
LORAIN-ELYRIA  CLOUDY    43  32  65 E12       30.08F
ASHTABULA      CLOUDY    43  30  60 NE5       30.17F
AKRON-CANTON   CLOUDY    45  29  53 E16G24    30.06F
WOOSTER        CLOUDY    44  31  60 E10       30.07F
MANSFIELD      CLOUDY    44  32  62 NE10      30.04F
YOUNGSTOWN     CLOUDY    45  29  53 E12       30.13F
$$

OHZ042-051>053-060>062-070>072-077>081-300900-
  SOUTHWEST OHIO

CITY           SKY/WX    TMP DP  RH WIND       PRES   REMARKS
CINC-COVINGTON CLOUDY    53  44  71 E10       29.90F
CINC-LUNKEN    CLOUDY    53  45  74 N3        29.92F
HAMILTON       CLOUDY    52  45  77 E7        29.93F
DAYTON         CLOUDY    49  36  61 E12       29.96F
WRIGHT-PAT AFB CLOUDY    51  36  56 E10       29.96F
DAYTON GENERAL CLOUDY    50  40  68 E8        29.94F
WILMINGTON     CLOUDY    48  40  73 E8        29.95F
$$

OHZ036-037-039>041-045>050-054>059-063>069-073>076-082>088-300900-
  CENTRAL AND SOUTHEAST OHIO

CITY           SKY/WX    TMP DP  RH WIND       PRES   REMARKS
COLUMBUS       CLOUDY    50  33  52 E9        29.98F
OSU AIRPORT    CLOUDY    49  34  56 E7        29.99F
BOLTON FIELD   MOCLDY    49  34  56 E6        29.99S
RICKENBACK AFB MOCLDY    47  36  63 E8        29.98F
NEWARK         MOCLDY    47  33  58 NE7       29.99F
MARION         CLOUDY    46  33  60 NE9       30.03F
LANCASTER      CLOUDY    50  35  56 CALM      29.99F
ZANESVILLE     CLOUDY    49  31  49 E8        30.01F
NEW PHILLY     NOT AVBL
$$




USA.gov is the U.S. government's official web portal to all federal, state and local government web resources and services.